Flag for U.S.A. Weather past 2 weeks in Breckenridge, Colorado, U.S.A.

Now
34 °F

Overcast.


Feels Like: 31 °F
Forecast: 30 / 55 °F
Wind: 3 mph from Southeast

Location: Copper Mountain - Red Cliff Pass

Current Time: Apr 27, 2015 at 7:50:18 PM

Latest Report: Apr 27, 2015 at 7:36 PM


Visibility: N/A

Pressure: 30.34 "Hg

Humidity: 70%

Dew point: 25 °F

Location of BreckenridgeLocation

Historic Weather in Breckenridge — Graph

°F

Breckenridge temperature yesterday

Maximum temperature yesterday: 34 °F (at 8:56 AM)
Minimum temperature yesterday: 28 °F (at 8:56 PM)
Average temperature yesterday: 32 °F

Past Weeks' High & Low Weather Summary

 TemperatureHumidityPressure
High46 °F (Apr 13, 2:35 PM)100% (Apr 17, 1:15 AM)30.43 "Hg (Apr 17, 1:15 AM)
Low18 °F (Apr 18, 5:15 AM)9% (Apr 15, 2:15 PM)29.79 "Hg (Apr 15, 9:55 AM)
Average29 °F61%30.07 "Hg
* Reported Apr 12 6:15 PM — Apr 27 6:56 PM, Breckenridge, Weather by CustomWeather, © 2015

Note: Actual official high and low records may vary slightly from our data, if they occured in-between our weather recording intervals... More about our weather records

Advertising

Breckenridge weather history for previous 24 hours

 ConditionsComfort  
Time TempWeatherWind HumidityBarometerVisibility
6:56 PM
Mon, Apr 27
34 °FBroken clouds.6 mph70%30.33 "HgN/A
6:36 PM36 °FScattered clouds.6 mph60%30.33 "HgN/A
6:16 PM37 °FMore clouds than sun.6 mph65%30.32 "HgN/A
5:56 PM36 °FOvercast.8 mph65%30.32 "HgN/A
5:36 PM36 °FMore clouds than sun.6 mph65%30.32 "HgN/A
5:16 PM36 °FMore clouds than sun.12 mph70%30.31 "HgN/A
4:56 PM37 °FThundershowers. More clouds than sun.10 mph70%30.31 "HgN/A
4:36 PM37 °FCloudy.6 mph65%30.31 "HgN/A
4:16 PM37 °FCloudy.5 mph65%30.31 "HgN/A
3:56 PM36 °FThundershowers. Partly sunny.6 mph65%30.31 "HgN/A
3:36 PM37 °FPartly sunny.6 mph60%30.31 "HgN/A
2:56 PM37 °FMostly cloudy.3 mph60%30.31 "HgN/A
2:36 PM37 °FMostly cloudy.13 mph65%30.31 "HgN/A
2:16 PM37 °FOvercast.15 mph65%30.31 "HgN/A
1:56 PM37 °FMore clouds than sun.10 mph65%30.31 "HgN/A
1:36 PM36 °FMore clouds than sun.5 mph70%30.31 "HgN/A
1:16 PM36 °FCloudy.5 mph70%30.31 "HgN/A
12:56 PM36 °FMostly cloudy.6 mph70%30.31 "HgN/A
12:36 PM36 °FCloudy.6 mph70%30.31 "HgN/A
12:16 PM36 °FCloudy.10 mph70%30.30 "HgN/A
11:56 AM37 °FCloudy.8 mph65%30.29 "HgN/A
11:36 AM37 °FMostly cloudy.7 mph65%30.29 "HgN/A
11:16 AM36 °FOvercast.9 mph60%30.29 "HgN/A
10:56 AM34 °FBroken clouds.10 mph65%30.28 "HgN/A
10:36 AM34 °FScattered clouds.10 mph70%30.28 "HgN/A
10:16 AM32 °FScattered clouds.9 mph69%30.27 "HgN/A
9:56 AM34 °FPartly sunny.10 mph65%30.27 "HgN/A
9:36 AM32 °FMore clouds than sun.16 mph69%30.25 "HgN/A
9:16 AM30 °FOvercast.14 mph69%30.26 "HgN/A
8:56 AM28 °FOvercast.15 mph74%30.25 "HgN/A
8:36 AM28 °FOvercast.15 mph74%30.24 "HgN/A
8:16 AM28 °FOvercast.14 mph74%30.24 "HgN/A
7:56 AM28 °FOvercast.10 mph74%30.23 "HgN/A
7:36 AM28 °FOvercast.6 mph74%30.22 "HgN/A
7:16 AM28 °FOvercast.5 mph74%30.21 "HgN/A
6:56 AM28 °FOvercast.6 mph74%30.20 "HgN/A
6:36 AM28 °FMostly cloudy.3 mph74%30.20 "HgN/A
6:16 AM28 °FOvercast.10 mph69%30.19 "HgN/A
5:56 AM28 °FOvercast.6 mph74%30.18 "HgN/A
5:36 AM28 °FMostly cloudy.8 mph74%30.18 "HgN/A
5:16 AM28 °FPassing clouds.8 mph69%30.17 "HgN/A
4:56 AM28 °FClear.6 mph69%30.15 "HgN/A
4:36 AM28 °FClear.13 mph74%30.15 "HgN/A
3:56 AM28 °FPartly cloudy.13 mph80%30.15 "HgN/A
3:36 AM28 °FMostly cloudy.13 mph74%30.14 "HgN/A
3:16 AM28 °FPassing clouds.13 mph74%30.14 "HgN/A
2:56 AM28 °FPartly cloudy.8 mph74%30.14 "HgN/A
2:36 AM28 °FMostly cloudy.8 mph74%30.14 "HgN/A
2:16 AM28 °FOvercast.6 mph74%30.14 "HgN/A
1:56 AM30 °FOvercast.3 mph69%30.14 "HgN/A
1:36 AM28 °FMostly cloudy.8 mph74%30.13 "HgN/A
1:16 AM28 °FOvercast.15 mph74%30.12 "HgN/A
12:56 AM28 °FMostly cloudy.14 mph74%30.12 "HgN/A
12:36 AM28 °FMostly cloudy.8 mph74%30.12 "HgN/A
12:16 AM28 °FMostly cloudy.10 mph80%30.12 "HgN/A
11:56 PM
Sun, Apr 26
28 °FOvercast.6 mph80%30.12 "HgN/A
11:36 PM28 °FLow clouds.9 mph80%30.12 "HgN/A
11:16 PM28 °FMostly cloudy.10 mph80%30.11 "HgN/A
10:56 PM28 °FLow clouds.17 mph80%30.10 "HgN/A
10:36 PM28 °FMostly cloudy.18 mph80%30.10 "HgN/A
10:16 PM28 °FMostly cloudy.14 mph80%30.10 "HgN/A
9:36 PM28 °FMostly cloudy.14 mph80%30.08 "HgN/A
9:16 PM28 °FOvercast.16 mph80%30.07 "HgN/A
8:56 PM28 °FOvercast.N/A80%30.05 "HgN/A
8:36 PM30 °FMostly cloudy.13 mph80%30.05 "HgN/A
8:16 PM30 °FCloudy.17 mph80%30.03 "HgN/A
7:56 PM30 °FLow clouds.N/A86%30.01 "HgN/A
7:36 PM30 °FMostly cloudy.N/A86%30.00 "HgN/A
7:16 PM30 °FCloudy.N/A86%30.00 "HgN/A
Weather by CustomWeather, © 2015

See weather overviewHow to use our weather pages